FW3021 Weather Reports


time (UTC)temp
C
wind
direction
speed
KPH
gust
KPH
rain 1hr
cm
rain 24hr
cm
rain mn
cm
humidity
%
barometer
mb
20260510174516 8 0 8.0 25.7 0.00 0.00 0.00 33 1019.4
20260510173516 8 0 9.7 20.9 0.00 0.00 0.00 34 1019.1
20260510172516 7 0 8.0 20.9 0.00 0.00 0.00 36 1019.1
20260510171516 7 0 11.3 20.9 0.00 0.00 0.00 37 1019.3
20260510170516 7 0 12.9 29.0 0.00 0.00 0.00 34 1019.3
20260510165516 7 0 8.0 19.3 0.00 0.00 0.00 34 1019.2
20260510164516 7 0 8.0 24.1 0.00 0.00 0.00 38 1019.2
20260510163515 7 0 9.7 19.3 0.00 0.00 0.00 38 1019.2
20260510162516 6 23 4.8 14.5 0.00 0.00 0.00 44 1019.1
20260510161515 6 90 8.0 22.5 0.00 0.00 0.00 43 1019.0
20260510160516 6 0 8.0 16.1 0.00 0.00 0.00 43 1018.7
20260510155516 6 45 4.8 12.9 0.00 0.00 0.00 45 1018.7
20260510154515 7 203 4.8 14.5 0.00 0.00 0.00 44 1018.5
20260510153516 7 0 9.7 19.3 0.00 0.00 0.00 43 1018.3
20260510152516 6 0 9.7 24.1 0.00 0.00 0.00 43 1018.5
20260510151516 6 0 4.8 16.1 0.00 0.00 0.00 45 1018.3
20260510150516 6 0 9.7 22.5 0.00 0.00 0.00 45 1018.1
20260510145515 7 0 11.3 22.5 0.00 0.00 0.00 44 1018.1
20260510144515 7 45 6.4 22.5 0.00 0.00 0.00 45 1017.9
20260510143516 7 0 9.7 25.7 0.00 0.00 0.00 45 1017.8
20260510142515 6 0 6.4 17.7 0.00 0.00 0.00 46 1017.6
20260510141515 7 0 9.7 24.1 0.00 0.00 0.00 45 1017.5
20260510140515 7 0 11.3 27.4 0.00 0.00 0.00 47 1017.5
20260510135518 7 0 9.7 24.1 0.00 0.00 0.00 48 1017.4
20260510134517 6 0 11.3 24.1 0.00 0.00 0.00 49 1017.3
20260510133517 6 0 8.0 19.3 0.00 0.00 0.00 52 1017.2
20260510132517 5 0 11.3 29.0 0.00 0.00 0.00 54 1017.1
20260510131517 5 0 12.9 27.4 0.00 0.00 0.00 56 1017.0
20260510130537 5 0 8.0 24.1 0.00 0.00 0.00 57 1016.9
20260510125517 5 0 12.9 25.7 0.00 0.00 0.00 57 1016.6
20260510124517 5 0 11.3 25.7 0.00 0.00 0.00 58 1016.3
20260510123517 5 0 9.7 22.5 0.00 0.00 0.00 58 1016.1
20260510122517 5 0 9.7 27.4 0.00 0.00 0.00 58 1016.0
20260510121517 5 0 6.4 17.7 0.00 0.00 0.00 60 1015.9
20260510120517 4 0 8.0 17.7 0.00 0.00 0.00 62 1015.9
20260510115517 3 0 4.8 16.1 0.00 0.00 0.00 65 1015.7
20260510114537 3 0 8.0 19.3 0.00 0.00 0.00 65 1015.7
20260510113517 2 23 3.2 12.9 0.00 0.00 0.00 66 1015.6
20260510112517 2 0 6.4 16.1 0.00 0.00 0.00 66 1015.4
20260510111517 2 0 8.0 17.7 0.00 0.00 0.00 66 1015.3
20260510110517 2 0 8.0 17.7 0.00 0.00 0.00 66 1015.0
20260510105517 2 0 6.4 17.7 0.00 0.00 0.00 66 1014.9
20260510104517 2 0 6.4 19.3 0.00 0.00 0.00 67 1014.8
20260510103617 2 338 1.6 8.0 0.00 0.00 0.00 66 1014.7
20260510102517 2 23 3.2 11.3 0.00 0.00 0.00 66 1014.6
20260510101517 2 0.0 4.8 0.00 0.00 0.00 65 1014.5
20260510100517 2 0 3.2 11.3 0.00 0.00 0.00 66 1014.4
20260510095517 2 225 1.6 8.0 0.00 0.00 0.00 65 1014.3
20260510094517 2 23 3.2 8.0 0.00 0.00 0.00 66 1014.2
20260510093517 3 23 3.2 14.5 0.00 0.00 0.00 66 1014.1
20260510092517 3 45 4.8 20.9 0.00 0.00 0.00 65 1013.9
20260510091517 3 0 8.0 19.3 0.00 0.00 0.00 64 1014.0
20260510090537 3 0 6.4 16.1 0.00 0.00 0.00 63 1013.7
20260510085517 3 23 4.8 19.3 0.00 0.00 0.00 63 1013.7
20260510084517 3 0 6.4 17.7 0.00 0.00 0.00 62 1013.6
20260510083517 3 0 6.4 12.9 0.00 0.00 0.00 62 1013.3
20260510082517 3 0 4.8 9.7 0.00 0.00 0.00 61 1013.1
20260510081537 3 23 3.2 11.3 0.00 0.00 0.00 61 1013.1
20260510080517 3 0 4.8 8.0 0.00 0.00 0.00 60 1013.3
20260510075517 3 45 4.8 8.0 0.00 0.00 0.00 60 1013.2
20260510074516 3 68 3.2 8.0 0.00 0.00 0.00 60 1013.1
20260510073517 3 45 1.6 6.4 0.00 0.00 0.00 59 1013.1
20260510072516 3 315 3.2 9.7 0.00 0.00 0.00 59 1013.1
20260510071517 3 0 4.8 9.7 0.00 0.00 0.00 59 1013.0
20260510070517 3 0 4.8 12.9 0.00 0.00 0.00 59 1013.0
20260510065517 3 0 4.8 9.7 0.00 0.00 0.00 59 1012.7
20260510064516 3 315 3.2 8.0 0.00 0.00 0.00 60 1012.9
20260510063516 3 315 3.2 9.7 0.00 0.00 0.00 60 1012.7
20260510062516 2 23 3.2 9.7 0.00 0.00 0.00 62 1012.7
20260510061516 2 293 3.2 6.4 0.00 0.00 0.00 63 1012.7
20260510060517 2 293 1.6 6.4 0.00 0.00 0.00 63 1012.6
20260510055537 1 293 3.2 8.0 0.00 0.00 0.00 64 1012.5
20260510054516 1 315 3.2 4.8 0.00 0.00 0.00 64 1012.4
20260510053516 1 315 4.8 6.4 0.00 0.00 0.00 64 1012.2
20260510052516 1 315 3.2 4.8 0.00 0.00 0.00 64 1012.1
20260510051516 1 23 3.2 6.4 0.00 0.00 0.00 65 1012.2
20260510050516 1 23 3.2 4.8 0.00 0.00 0.00 63 1012.2
20260510045516 1 23 3.2 4.8 0.00 0.00 0.00 62 1012.0
20260510044516 2 23 3.2 4.8 0.00 0.00 0.00 61 1012.0
20260510043516 2 23 1.6 3.2 0.00 0.00 0.00 59 1012.0
20260510042516 3 0.0 3.2 0.00 0.00 0.00 57 1012.0
20260510041517 3 23 1.6 4.8 0.00 0.00 0.00 56 1012.0
20260510040516 4 293 1.6 6.4 0.00 0.00 0.00 56 1011.9
20260510035517 4 0.0 0.0 0.00 0.00 0.00 54 1012.0
20260510034516 5 0.0 3.2 0.00 0.00 0.00 51 1011.9
20260510033516 5 0.0 3.2 0.00 0.00 0.00 50 1011.7
20260510032516 6 270 1.6 3.2 0.00 0.00 0.00 49 1011.8
20260510031517 6 315 1.6 3.2 0.00 0.00 0.00 49 1011.9
20260510030516 6 270 1.6 6.4 0.00 0.00 0.00 48 1011.9
20260510025516 6 0 6.4 12.9 0.00 0.00 0.00 47 1011.7
20260510024516 6 45 6.4 17.7 0.00 0.00 0.00 46 1011.6
20260510023516 5 0 8.0 22.5 0.00 0.00 0.00 43 1011.6
20260510022516 6 270 3.2 4.8 0.00 0.00 0.00 38 1011.1
20260510021516 6 0.0 1.6 0.00 0.00 0.00 36 1010.9
20260510020517 7 0.0 0.0 0.00 0.00 0.00 34 1010.8
20260510015516 7 270 1.6 4.8 0.00 0.00 0.00 33 1010.6
20260510014517 7 0 1.6 11.3 0.00 0.00 0.00 32 1010.5
20260510013516 7 23 3.2 11.3 0.00 0.00 0.00 32 1010.4
20260510012536 8 225 1.6 4.8 0.00 0.00 0.00 32 1010.3
20260510011536 8 293 1.6 9.7 0.00 0.00 0.00 31 1010.0
20260510010516 8 270 3.2 20.9 0.00 0.00 0.00 31 1010.0
20260510005516 8 315 1.6 11.3 0.00 0.00 0.00 31 1009.8
20260510004516 8 0.0 3.2 0.00 0.00 0.00 31 1009.7
20260510003516 8 315 3.2 12.9 0.00 0.00 0.00 31 1009.7
20260510002516 8 225 4.8 16.1 0.00 0.00 0.00 30 1009.5
20260510001517 9 270 4.8 12.9 0.00 0.00 0.00 29 1009.5
20260510000516 9 0 6.4 16.1 0.00 0.00 0.00 29 1009.2
20260509235536 10 0 4.8 16.1 0.00 0.00 0.00 28 1009.2
20260509234516 10 0 11.3 30.6 0.00 0.00 0.00 27 1009.1
20260509233516 10 0 9.7 22.5 0.00 0.00 0.00 28 1009.0
20260509232516 10 0 12.9 30.6 0.00 0.00 0.00 27 1009.0
20260509231516 11 0 9.7 19.3 0.00 0.00 0.00 26 1008.8
20260509230516 11 0 11.3 20.9 0.00 0.00 0.00 25 1008.8
20260509225556 11 0 9.7 30.6 0.00 0.00 0.00 26 1008.6
20260509224516 11 23 4.8 17.7 0.00 0.00 0.00 26 1008.7
20260509223516 11 0 8.0 25.7 0.00 0.00 0.00 27 1008.6
20260509222515 10 0 6.4 20.9 0.00 0.00 0.00 28 1008.3
20260509221516 10 0 8.0 22.5 0.00 0.00 0.00 27 1008.2
20260509220516 10 0 11.3 29.0 0.00 0.00 0.00 28 1008.2
20260509215516 10 0 8.0 17.7 0.00 0.00 0.00 29 1008.2
20260509214516 10 0 12.9 27.4 0.00 0.00 0.00 29 1008.1
20260509213515 10 0 11.3 25.7 0.00 0.00 0.00 30 1008.0
20260509212515 10 0 8.0 19.3 0.00 0.00 0.00 30 1008.0
20260509211516 10 0 6.4 19.3 0.00 0.00 0.00 30 1007.9
20260509210535 10 0 9.7 20.9 0.00 0.00 0.00 28 1007.8
20260509205516 10 0 9.7 30.6 0.00 0.00 0.00 29 1007.8
20260509204515 10 0 8.0 20.9 0.00 0.00 0.00 31 1007.8
20260509203516 10 0 12.9 27.4 0.00 0.00 0.00 30 1007.6
20260509202515 10 68 8.0 20.9 0.00 0.00 0.00 32 1007.6
20260509201515 10 0 9.7 27.4 0.00 0.00 0.00 32 1007.4
20260509200515 10 0 12.9 29.0 0.00 0.00 0.00 31 1007.3
20260509195517 10 0 4.8 12.9 0.00 0.00 0.00 30 1007.1
20260509194538 10 113 6.4 19.3 0.00 0.00 0.00 29 1007.0
20260509193517 10 0 9.7 24.1 0.00 0.00 0.00 31 1007.2
20260509192517 10 0 8.0 20.9 0.00 0.00 0.00 30 1007.1
20260509191517 10 45 9.7 20.9 0.00 0.00 0.00 33 1007.1
20260509190538 8 45 8.0 17.7 0.00 0.00 0.00 35 1007.3
20260509185537 8 0 8.0 19.3 0.00 0.00 0.00 33 1007.2
20260509184558 8 0 6.4 17.7 0.00 0.00 0.00 32 1007.0
20260509183517 8 0 12.9 38.6 0.00 0.00 0.00 32 1006.7
20260509182517 9 0 11.3 24.1 0.00 0.00 0.00 30 1006.7
20260509181517 10 0 8.0 22.5 0.00 0.00 0.00 29 1006.5
20260509180517 9 45 14.5 35.4 0.00 0.00 0.00 30 1006.2
20260509175517 8 0 9.7 25.7 0.00 0.00 0.00 33 1006.2